STARLINK-3905 (52495 NORAD) Tracking and Keplerian Element Data

This shows tracking and keplerian element data for the satellite.

Feedback or suggestion? Click here.




ElementValue
Catalog52495
NameSTARLINK-3905
Epoch Orbit130
Epoch Day167.08334491
Epoch Year2022
RAAN64.9707
Inclination53.2183
Eccentricity0.0001839
Argument of Perigee27.309
Mean Anonmoly126.7397
Mean Motion15.73223944
Decay Rate0.00026308
L11 52495U 22049AW 22167.08334491 .00026308 00000+0 19108-3 0 9992
L22 52495 53.2183 64.9707 0001839 27.3090 126.7397 15.73223944 1303

Live tracking and technical data element details for STARLINK-3905 (NORAD 52495). STARLINK-3905 can be tracked NOW for your location showing map with azimuth and elevation plus other details from your city location.

Track the satellite on the map from your city or location and see movement details for azimuth, elevation, latitude, longitude, range, height, and movement on the map or in text.







IsCatalogInMostPopularTable: catalog: 52495, numindb: 2
Update: records affected: 1



GetName: 52495 STARLINK-3905

Hit Count: updated at: Sat, 25 Jun 2022 05:06:12 GMT